#timestamp,LO_Frequency,Hit,StdDev 
1558548015.7,286047003.8,N
1558548035.6,286047003.3,N
1558548055.4,286047001.8,N
1558548075.3,286047002.7,N
1558548095.1,286047002.4,N
1558548096.0,286047002.4,N
1558548115.8,286047002.4,N
1558548135.7,286047000.7,N
1558548155.5,286046998.1,N
1558548175.3,286046999.5,N
1558548195.2,286047001.2,N
1558548215.0,286047000.0,N
1558548215.9,286047000.0,N
1558548235.8,286047002.5,N
1558548255.6,286047002.7,N
1558548275.4,286047000.1,N
1558548295.3,286047000.1,N
1558548315.1,286047002.2,N
1558548335.9,286047002.6,N
1558548355.7,286047001.3,N
1558548375.5,286047004.4,Y
1558548395.4,286047000.2,P
1558548415.2,286046999.8,N
1558548435.1,286047003.0,P
1558548436.0,286047003.0,N
1558548455.8,286047003.6,N
1558548475.6,286047001.5,N
1558548495.5,286047003.6,N
1558548515.3,286047004.0,N
1558548535.1,286047002.5,N
1558548555.9,286047001.3,N
1558548575.7,286047004.4,Y
1558548595.6,286047000.9,P
1558548615.4,286046998.3,N
1558548635.2,286046996.7,N
1558548655.1,286046999.0,N
1558548656.0,286046999.0,N
1558548675.8,286047000.0,N
1558548695.6,286047002.6,N
1558548715.5,286046998.4,N
1558548735.3,286046998.1,N
1558548755.2,286046999.3,N
1558548775.9,286046997.7,N
1558548795.7,286046999.0,N
1558548815.6,286046998.2,N
1558548835.4,286046999.9,N
1558548855.2,286047000.4,N
1558548875.1,286046996.9,N
1558548876.0,286046996.9,N
1558548895.8,286046997.2,N
1558548915.7,286046998.1,N
1558548935.5,286047001.5,N
1558548955.3,286047001.5,N
1558548975.2,286047000.9,N
1558548995.0,286046999.3,N
1558548995.9,286046999.3,N
1558549015.8,286047000.0,N
1558549035.6,286046998.8,N
1558549055.4,286046998.9,N
1558549075.3,286046999.5,N
1558549095.1,286046999.6,N
1558549115.8,286046996.8,N
1558549135.7,286046998.4,N
1558549155.5,286046999.2,N
1558549175.4,286046998.2,N
1558549195.2,286046999.4,N
1558549215.0,286046996.9,N
1558549215.9,286046996.9,N
1558549235.8,286046998.1,N
1558549255.6,286047000.0,N
1558549275.5,286047000.4,N
1558549295.3,286046999.7,N
1558549315.1,286047001.7,N
1558549335.9,286047002.4,N
1558549355.7,286047002.5,N
1558549375.5,286046999.9,N
1558549395.4,286047000.5,N
1558549415.2,286047000.7,N
1558549435.0,286047004.3,N
1558549436.0,286047004.3,N
1558549455.8,286047002.3,N
1558549475.6,286047001.0,N
1558549495.5,286047002.4,N
1558549515.3,286047002.7,N
1558549535.1,286047003.9,N
1558549555.9,286047004.1,N
1558549575.7,286047002.0,N
1558549595.5,286047002.4,N
1558549615.4,286046999.9,N
1558549635.2,286047000.1,N
1558549655.1,286047004.3,N
1558549656.0,286047004.3,N
1558549675.8,286047001.4,N
1558549695.6,286046999.8,N
1558549715.5,286047001.2,N
1558549735.3,286046998.1,N
1558549755.1,286047002.5,N
1558549775.9,286047003.1,N
1558549795.7,286046999.9,N
1558549815.6,286047001.4,N
1558549835.4,286046999.9,N
1558549855.2,286047001.0,N
1558549875.1,286047004.0,N
1558549876.0,286047004.0,N
1558549895.8,286047005.7,Y
1558549915.7,286046999.9,P
1558549935.5,286047001.9,N
1558549955.3,286047000.4,N
1558549975.2,286046999.7,N
1558549995.0,286046998.5,N
1558549995.9,286046998.5,N
1558550015.7,286046996.6,N
1558550035.6,286046998.3,N
1558550055.4,286047000.9,N
1558550075.3,286046999.0,N
1558550095.1,286046996.8,N
1558550096.0,286046996.8,N
1558550115.8,286046999.2,N
1558550135.7,286047002.4,N
1558550155.5,286046999.8,N
1558550175.3,286046999.3,N
1558550195.2,286046998.4,N
1558550215.0,286047002.8,N
1558550215.9,286047002.8,N
1558550235.8,286047002.3,N
1558550255.6,286047003.8,N
1558550275.4,286047002.1,N
1558550295.3,286047000.4,N
1558550315.1,286046999.0,N
1558550335.8,286046999.9,N
1558550355.7,286047000.4,N
1558550375.5,286046998.5,N
1558550395.4,286046998.1,N
1558550415.2,286047000.7,N
1558550435.0,286047000.6,N
1558550435.9,286047000.6,N
1558550455.8,286047001.6,N
1558550475.6,286047001.3,N
1558550495.4,286046999.8,N
1558550515.3,286047000.1,N
1558550535.1,286047002.7,N
1558550555.9,286047000.1,N
1558550575.7,286046999.9,N
1558550595.5,286047001.1,N
1558550615.4,286047000.8,N
1558550635.2,286046998.4,N
1558550655.1,286046999.8,N
1558550656.0,286046999.8,N
1558550675.8,286046998.1,N
1558550695.6,286047001.0,N
1558550715.5,286047000.4,N
1558550735.3,286047000.8,N
1558550755.1,286047002.1,N
1558550775.9,286047000.1,N
1558550795.7,286047000.6,N
1558550815.6,286046999.8,N
1558550835.4,286047000.2,N
1558550855.2,286047002.8,N
1558550875.1,286046998.7,N
1558550876.0,286046998.7,N
1558550895.8,286046999.3,N
1558550915.6,286047002.5,N
1558550935.5,286046999.7,N
1558550955.3,286047001.8,N
1558550975.2,286047002.2,N
1558550995.9,286047004.4,Y
1558551015.7,286047000.1,P
1558551035.6,286047002.7,P
1558551055.4,286047003.9,P
1558551075.2,286047003.3,N
1558551095.1,286047001.3,N
1558551096.0,286047001.3,N
1558551115.8,286047000.0,N
1558551135.7,286046998.6,N
1558551155.5,286046998.1,N
1558551175.3,286047002.7,N
1558551195.2,286047002.7,N
1558551215.0,286047001.5,N
1558551215.9,286047001.5,N
1558551235.8,286047000.5,N
1558551255.6,286046998.5,N
1558551275.4,286046999.9,N
1558551295.3,286046999.8,N
1558551315.1,286047000.4,N
1558551335.8,286046999.5,N
1558551355.7,286046995.3,N
1558551375.5,286046997.4,N
1558551395.4,286046997.4,N
1558551415.2,286047000.3,N
1558551435.0,286047000.4,N
1558551435.9,286047000.4,N
1558551455.8,286047001.6,N
1558551475.6,286047001.6,N
1558551495.4,286047004.4,N
1558551515.3,286047003.2,N
1558551535.1,286047005.0,N
1558551555.9,286047005.7,N
1558551575.7,286047006.3,N
1558551595.5,286047007.3,N
